PBO Station Position Time Series. Reference Frame : NAM14
Format Version,1.1.0
4-character ID,MNPL
Station name,PLINY
Begin Date, 2005-12-01
End Date, 2018-10-03
Release Date, 2019-08-30
Reference position, 46.3395463912 North Latitude, -93.2620901737 East Longitude, 354.19805 meters elevation,
Date, North (mm), East (mm), Vertical (mm), North Std. Deviation (mm), East Std. Deviation (mm),              Vertical Std. Deviation (mm), Quality,
2005-12-01,0.00, 0.00, 0.00, 2.28, 1.62, 7.38, repro,
2005-12-02,0.40, 0.39, 0.51, 2.43, 1.74, 7.83, repro,
2005-12-03,-0.27, 0.70, 6.60, 2.36, 1.71, 7.70, repro,
2005-12-04,-0.07, -0.25, 4.29, 2.26, 1.63, 7.38, repro,
2005-12-06,-0.09, -0.23, -4.32, 2.26, 1.62, 7.36, repro,
2005-12-07,-0.64, -0.09, -6.30, 2.28, 1.63, 7.44, repro,
2005-12-08,-0.89, 0.76, -10.17, 2.27, 1.62, 7.37, repro,
2005-12-09,-2.03, 0.69, 3.44, 2.27, 1.62, 7.38, repro,
2005-12-10,-1.43, 0.26, 8.86, 2.25, 1.62, 7.34, repro,
2005-12-11,0.82, 0.28, 7.42, 2.23, 1.60, 7.28, repro,
2005-12-12,0.95, 1.31, 3.55, 2.23, 1.61, 7.28, repro,
2005-12-13,0.73, 1.77, 2.43, 2.33, 1.67, 7.53, repro,
2005-12-14,-0.16, 2.72, 3.54, 2.40, 1.73, 7.85, repro,
2005-12-15,0.99, 1.89, 6.65, 2.33, 1.67, 7.65, repro,
2005-12-17,0.55, 0.56, -3.64, 2.31, 1.70, 7.69, repro,
2005-12-18,0.08, 1.03, -10.28, 2.34, 1.69, 7.69, repro,
2005-12-19,-0.43, 0.87, -6.57, 2.41, 1.72, 7.84, repro,
2005-12-20,0.87, 0.99, -9.12, 2.36, 1.71, 7.78, repro,
2005-12-21,-0.31, 1.24, 0.32, 2.31, 1.68, 7.59, repro,
2005-12-22,-1.29, 1.05, 13.63, 2.32, 1.65, 7.60, repro,
2005-12-23,-0.23, 2.44, 5.57, 2.54, 1.80, 8.33, repro,
2005-12-24,0.53, 1.88, 2.44, 2.48, 1.74, 7.94, repro,
2005-12-25,-0.45, 1.62, 10.34, 2.39, 1.69, 7.80, repro,
2005-12-26,-0.92, 2.53, 11.00, 2.26, 1.63, 7.37, repro,
2005-12-27,0.58, 2.04, 12.04, 2.41, 1.71, 7.84, repro,
2005-12-28,1.41, 0.90, 8.26, 2.31, 1.64, 7.48, repro,
2005-12-29,0.56, 1.36, 6.01, 2.51, 1.78, 8.18, repro,
2005-12-30,0.55, 2.37, 9.65, 2.65, 1.84, 8.49, repro,
2005-12-31,0.67, 1.75, 13.11, 2.56, 1.79, 8.11, repro,
2006-01-01,0.25, 1.56, 7.51, 2.34, 1.65, 7.50, repro,
2006-01-02,1.01, 1.62, 7.71, 2.33, 1.68, 7.66, repro,
2006-01-03,0.46, 2.10, 1.28, 2.53, 1.74, 8.04, repro,
2006-01-04,-0.56, 1.49, 2.56, 2.42, 1.70, 7.82, repro,
2006-01-05,0.55, 1.53, -2.24, 2.41, 1.71, 7.85, repro,
2006-01-06,-0.68, 1.12, -1.12, 2.43, 1.71, 7.91, repro,
2006-01-07,-0.40, 1.76, 7.62, 2.31, 1.67, 7.59, repro,
2006-01-08,0.58, 1.53, 7.00, 2.42, 1.72, 7.92, repro,
2006-01-09,0.12, 0.90, -2.84, 2.50, 1.73, 8.02, repro,
2006-01-10,0.16, 1.33, -0.95, 2.41, 1.68, 7.70, repro,
2006-01-11,0.06, 1.74, 7.45, 2.49, 1.73, 7.86, repro,
2006-01-12,-0.75, 2.39, 10.08, 2.33, 1.67, 7.64, repro,
2006-01-13,1.47, 0.03, 0.89, 2.36, 1.65, 7.55, repro,
2006-01-14,-0.54, 1.22, 2.93, 2.33, 1.67, 7.50, repro,
2006-01-15,0.63, 2.15, 5.71, 2.34, 1.69, 7.69, repro,
2006-01-16,0.12, 2.09, 9.18, 2.38, 1.73, 7.84, repro,
2006-01-17,0.55, 1.41, 3.74, 2.36, 1.65, 7.57, repro,
2006-01-18,0.41, 1.37, 11.58, 2.34, 1.67, 7.54, repro,
2006-01-19,-0.36, 1.39, 10.83, 2.41, 1.77, 7.90, repro,
2006-01-20,-0.68, 1.14, 5.69, 2.28, 1.66, 7.44, repro,
2006-01-21,-0.85, 0.95, -1.34, 2.27, 1.61, 7.33, repro,
2006-01-23,0.78, 1.32, 6.41, 2.33, 1.65, 7.46, repro,
2006-01-24,-0.15, 0.80, 7.07, 2.34, 1.66, 7.51, repro,
2006-01-25,0.59, 1.56, -2.54, 2.20, 1.57, 7.17, repro,
2006-01-26,-0.41, 3.59, -0.07, 2.26, 1.61, 7.29, repro,
2006-01-27,0.04, 2.46, -1.03, 2.28, 1.63, 7.43, repro,
2006-01-28,0.15, 2.14, 1.48, 2.30, 1.68, 7.56, repro,
2006-01-29,1.14, 2.61, 5.55, 2.25, 1.62, 7.32, repro,
2006-01-30,0.73, 0.91, 3.31, 2.25, 1.63, 7.35, repro,
2006-01-31,0.25, 2.17, 4.94, 2.25, 1.62, 7.31, repro,
2006-02-01,-0.59, 1.45, 8.56, 2.20, 1.59, 7.18, repro,
2006-02-02,-0.17, 2.05, 7.41, 2.20, 1.58, 7.12, repro,
2006-02-03,-1.52, -0.19, -11.43, 2.34, 1.68, 7.64, repro,
2006-02-04,0.95, -0.20, -3.27, 2.20, 1.59, 7.20, repro,
2006-02-05,2.54, -0.68, -3.71, 2.22, 1.61, 7.26, repro,
2006-02-07,0.70, 1.74, -8.06, 2.30, 1.70, 7.69, repro,
2006-02-08,1.53, 1.89, -8.81, 2.24, 1.64, 7.48, repro,
2006-02-13,-0.28, 3.80, 9.77, 3.35, 2.42, 11.06, repro,
2006-02-14,1.22, 2.49, 10.36, 2.19, 1.61, 7.21, repro,
2006-02-15,1.50, 3.05, 0.54, 2.30, 1.74, 7.79, repro,
2006-02-16,2.02, 3.07, -7.65, 2.29, 1.70, 7.69, repro,
2006-02-17,1.79, 2.05, -9.57, 2.30, 1.71, 7.76, repro,
2006-02-18,1.00, 1.91, -10.78, 2.24, 1.65, 7.46, repro,
2006-02-19,0.30, 3.19, 0.96, 2.23, 1.66, 7.54, repro,
2006-02-20,0.63, 3.65, 11.39, 2.26, 1.70, 7.63, repro,
2006-02-21,-0.47, 3.34, 11.30, 2.28, 1.70, 7.70, repro,
2006-02-22,0.76, 4.56, 14.31, 2.28, 1.70, 7.65, repro,
2006-02-23,1.38, 3.98, 4.18, 2.27, 1.70, 7.61, repro,
2006-02-24,2.70, 3.38, -0.23, 2.20, 1.62, 7.22, repro,
2006-02-25,2.39, 2.86, -0.56, 2.20, 1.66, 7.41, repro,
2006-02-26,1.37, 3.68, -4.26, 2.21, 1.66, 7.46, repro,
2006-02-27,2.17, 5.01, 5.07, 2.23, 1.67, 7.41, repro,
2006-02-28,2.75, 4.61, 7.31, 2.33, 1.79, 7.99, repro,
2006-03-01,2.86, 3.88, 10.60, 2.24, 1.71, 7.60, repro,
2006-03-02,2.68, 4.23, 2.06, 2.24, 1.68, 7.43, repro,
2006-03-03,2.49, 4.88, -3.49, 2.24, 1.71, 7.59, repro,
2006-03-04,2.48, 5.80, -6.25, 2.25, 1.70, 7.65, repro,
2006-03-05,1.89, 5.68, 0.20, 2.27, 1.70, 7.70, repro,
2006-03-06,1.40, 5.09, -3.61, 2.20, 1.65, 7.45, repro,
2006-03-07,0.52, 6.24, 3.59, 2.19, 1.62, 7.32, repro,
2006-03-08,3.16, 6.11, 7.38, 2.18, 1.61, 7.27, repro,
2006-03-09,2.71, 6.64, 11.96, 2.15, 1.60, 7.21, repro,
2006-03-10,1.44, 8.06, 6.46, 3.90, 2.86, 13.54, repro,
2006-03-11,2.27, 6.44, 6.55, 2.24, 1.68, 7.56, repro,
2006-03-12,2.22, 5.59, -1.62, 2.28, 1.69, 7.71, repro,
2006-03-13,4.41, 3.72, 9.94, 9.82, 7.08, 35.90, repro,
2006-03-14,3.09, 5.31, -3.73, 2.28, 1.70, 7.78, repro,
2006-03-15,3.13, 6.00, -9.41, 2.34, 1.77, 8.08, repro,
2006-03-16,2.69, 7.18, -9.62, 2.42, 1.80, 8.38, repro,
2006-03-17,3.08, 7.10, -13.41, 2.35, 1.73, 7.94, repro,
2006-03-18,3.34, 7.09, -15.45, 2.29, 1.70, 7.75, repro,
2006-03-19,3.90, 7.74, -13.71, 2.40, 1.83, 8.28, repro,
2006-03-20,3.96, 8.23, -11.15, 2.37, 1.79, 8.02, repro,
2006-03-21,2.92, 7.50, -7.02, 2.32, 1.73, 7.74, repro,
2006-03-22,1.36, 6.88, -12.05, 2.34, 1.77, 7.87, repro,
2006-03-23,1.36, 6.97, -8.53, 2.37, 1.76, 7.97, repro,
2006-03-28,2.41, 6.35, -7.34, 3.43, 2.40, 11.29, repro,
2006-03-29,1.10, 7.41, -0.13, 2.21, 1.64, 7.38, repro,
2006-03-30,2.15, 6.50, -0.97, 2.21, 1.63, 7.35, repro,
2006-03-31,1.87, 5.17, 0.03, 2.24, 1.62, 7.39, repro,
2006-04-01,3.33, 4.91, -0.26, 2.27, 1.66, 7.58, repro,
2006-04-02,0.77, 6.37, 0.54, 2.22, 1.65, 7.36, repro,
2006-04-03,1.19, 5.15, -5.34, 2.23, 1.66, 7.45, repro,
2006-04-04,1.66, 5.83, 0.11, 2.22, 1.64, 7.36, repro,
2006-04-05,2.35, 6.28, 1.16, 2.22, 1.64, 7.36, repro,
2006-04-06,3.66, 6.28, 8.72, 3.68, 2.57, 12.14, repro,
2006-04-07,2.44, 6.07, -0.79, 2.29, 1.73, 7.61, repro,
2006-04-08,0.91, 5.59, -6.34, 2.29, 1.69, 7.55, repro,
2006-04-10,1.66, 5.67, 6.48, 3.24, 2.19, 10.18, repro,
2006-04-11,0.47, 4.58, 7.15, 2.34, 1.73, 7.57, repro,
2006-04-12,0.61, 4.48, 5.31, 2.28, 1.67, 7.42, repro,
2006-04-13,0.55, 6.35, -1.62, 2.23, 1.64, 7.30, repro,
2006-04-14,0.50, 5.80, -0.11, 2.26, 1.66, 7.44, repro,
2006-04-15,2.65, 4.87, 6.61, 2.25, 1.63, 7.40, repro,
2006-04-16,1.99, 5.78, 8.31, 2.22, 1.63, 7.28, repro,
2006-04-17,1.37, 4.78, -1.87, 3.89, 2.62, 12.62, repro,
2006-04-18,-0.35, 6.09, -2.14, 2.23, 1.64, 7.31, repro,
2006-04-19,-0.97, 6.96, -2.23, 2.21, 1.61, 7.27, repro,
2006-04-20,0.66, 4.43, 0.15, 2.29, 1.65, 7.47, repro,
2006-04-21,-0.30, 5.10, 5.33, 2.18, 1.59, 7.16, repro,
2006-04-22,2.18, 5.09, 0.87, 2.18, 1.59, 7.15, repro,
2006-04-23,0.97, 5.40, -2.53, 2.23, 1.65, 7.36, repro,
2006-04-24,-0.91, 3.53, 2.57, 3.95, 2.73, 12.63, repro,
2006-04-25,1.17, 4.22, -4.15, 2.23, 1.64, 7.31, repro,
2006-04-27,3.28, 4.86, 5.04, 3.80, 2.59, 11.96, repro,
2006-04-28,-0.07, 5.09, 0.98, 2.85, 2.02, 9.36, repro,
2006-04-29,0.34, 5.75, -2.97, 2.18, 1.59, 7.13, repro,
2006-04-30,1.16, 5.19, 0.28, 2.19, 1.59, 7.13, repro,
2006-05-01,-0.37, 4.57, -0.07, 2.18, 1.58, 7.06, repro,
2006-05-02,0.22, 4.38, -1.31, 2.17, 1.58, 7.04, repro,
2006-05-03,0.92, 2.87, 3.57, 2.16, 1.59, 7.07, repro,
2006-05-04,-1.08, 3.17, 5.14, 2.18, 1.59, 7.10, repro,
2006-05-05,-0.82, 4.15, 5.38, 2.19, 1.59, 7.11, repro,
2006-05-06,-0.51, 5.23, 4.26, 2.18, 1.58, 7.07, repro,
2006-05-07,0.77, 5.96, 5.82, 2.19, 1.59, 7.14, repro,
2006-05-08,0.17, 4.81, 5.71, 2.18, 1.59, 7.09, repro,
2006-05-09,1.17, 4.75, 9.36, 2.37, 1.75, 7.65, repro,
2006-05-10,0.70, 3.72, 4.65, 2.20, 1.59, 7.14, repro,
2006-05-11,0.29, 3.75, 3.50, 2.19, 1.59, 7.11, repro,
2006-05-12,0.54, 4.63, 2.82, 2.26, 1.62, 7.28, repro,
2006-05-13,2.02, 4.84, -1.22, 2.19, 1.58, 7.09, repro,
2006-05-14,0.32, 3.41, -7.23, 2.18, 1.58, 7.04, repro,
2006-05-15,1.11, 3.13, -3.25, 2.19, 1.59, 7.10, repro,
2006-05-16,2.31, 3.30, 1.31, 2.26, 1.61, 7.29, repro,
2006-05-17,0.12, 5.02, 9.58, 2.25, 1.60, 7.22, repro,
2006-05-18,1.62, 4.32, 6.93, 2.19, 1.58, 7.14, repro,
2006-05-19,0.91, 4.87, 5.94, 2.26, 1.63, 7.29, repro,
2006-05-20,0.27, 4.49, 9.02, 2.24, 1.62, 7.24, repro,
2006-05-22,-0.32, 4.07, -0.76, 3.45, 2.28, 10.66, repro,
2006-05-23,0.92, 6.38, -2.33, 2.27, 1.61, 7.29, repro,
2006-05-24,1.78, 5.46, 9.00, 2.28, 1.63, 7.38, repro,
2006-06-01,0.29, 4.67, -4.99, 3.86, 2.51, 11.97, repro,
2006-06-02,2.11, 2.60, 3.21, 2.32, 1.67, 7.55, repro,
2006-06-03,1.82, 4.44, -2.64, 2.31, 1.66, 7.53, repro,
2006-06-04,0.66, 3.80, 0.61, 2.35, 1.71, 7.65, repro,
2006-06-05,1.35, 5.87, 8.68, 2.30, 1.67, 7.52, repro,
2006-06-06,0.40, 5.47, 7.46, 2.38, 1.73, 7.75, repro,
2006-06-07,0.42, 3.75, 4.74, 2.37, 1.72, 7.79, repro,
2006-06-08,0.88, 5.07, -4.58, 2.27, 1.61, 7.26, repro,
2006-06-09,0.77, 5.52, -5.71, 2.28, 1.62, 7.34, repro,
2006-06-10,1.57, 5.36, -2.90, 2.25, 1.63, 7.33, repro,
2006-06-11,1.41, 6.03, -0.58, 2.29, 1.64, 7.42, repro,
2006-06-12,0.27, 4.42, 4.92, 3.52, 2.32, 10.74, repro,
2006-06-13,0.26, 2.92, 8.42, 3.88, 2.62, 12.10, repro,
2006-06-14,0.19, 5.21, -3.29, 2.32, 1.66, 7.47, repro,
2006-06-15,0.76, 4.86, 8.52, 2.29, 1.64, 7.40, repro,
2006-06-16,-1.42, 4.43, 0.61, 2.30, 1.66, 7.37, repro,
2006-06-17,-3.43, 5.91, 15.76, 3.85, 2.48, 11.72, repro,
2006-06-18,1.80, 3.26, 1.09, 2.31, 1.68, 7.49, repro,
2006-06-19,2.21, 2.98, 1.51, 2.31, 1.67, 7.39, repro,
2006-06-20,1.18, 4.27, -1.10, 2.30, 1.67, 7.43, repro,
2006-06-21,-0.32, 2.77, 0.84, 2.38, 1.72, 7.66, repro,
2006-06-22,1.66, 4.24, 5.01, 2.29, 1.66, 7.35, repro,
2006-06-23,0.83, 4.27, -2.36, 2.37, 1.79, 7.94, repro,
2006-06-24,2.85, 3.82, 1.96, 2.32, 1.67, 7.46, repro,
2006-06-25,-0.04, 2.64, -6.86, 2.38, 1.82, 8.06, repro,
2006-06-26,-0.12, 3.12, -2.12, 2.35, 1.72, 7.60, repro,
2006-06-27,-0.10, 5.15, -1.32, 2.38, 1.73, 7.68, repro,
2006-06-28,1.11, 4.02, -2.46, 2.30, 1.68, 7.46, repro,
2006-06-29,1.13, 5.01, -3.58, 2.22, 1.63, 7.23, repro,
2006-06-30,0.30, 5.05, 5.13, 3.40, 2.27, 10.73, repro,
2006-07-01,0.39, 4.98, 4.74, 2.30, 1.68, 7.46, repro,
2006-07-02,-0.96, 2.46, -0.04, 2.24, 1.61, 7.15, repro,
2006-07-03,1.81, 4.58, -0.66, 2.33, 1.75, 7.75, repro,
2006-07-04,0.22, 2.83, 0.91, 2.25, 1.63, 7.27, repro,
2006-07-05,1.10, 4.49, -5.76, 2.45, 1.87, 8.25, repro,
2006-07-06,1.15, 4.07, -7.71, 2.23, 1.62, 7.21, repro,
2006-07-07,1.31, 4.52, -5.17, 2.24, 1.62, 7.18, repro,
2006-07-08,-0.77, 4.37, 7.83, 2.33, 1.71, 7.65, repro,
2006-07-09,0.12, 5.47, 4.52, 2.25, 1.63, 7.27, repro,
2006-07-10,2.41, 4.99, 0.08, 2.26, 1.63, 7.30, repro,
2006-07-11,0.00, 6.09, 4.74, 2.27, 1.65, 7.39, repro,
2006-07-12,0.42, 5.07, 1.33, 2.24, 1.62, 7.22, repro,
2006-07-13,-0.44, 3.56, 2.57, 2.25, 1.62, 7.25, repro,
2006-07-14,0.01, 1.89, 10.24, 2.29, 1.65, 7.44, repro,
2006-07-15,1.44, 4.64, 3.34, 2.35, 1.72, 7.71, repro,
2006-07-16,3.49, 4.19, 0.61, 2.35, 1.69, 7.60, repro,
2006-07-17,3.06, 3.89, 9.93, 2.32, 1.68, 7.52, repro,
2006-07-18,0.42, 3.92, 1.06, 2.22, 1.60, 7.11, repro,
2006-07-21,4.38, 3.17, -4.59, 5.70, 4.59, 21.60, repro,
2006-07-22,1.76, 5.08, -1.26, 2.18, 1.59, 7.09, repro,
2006-07-23,1.06, 4.05, 6.83, 2.20, 1.58, 7.11, repro,
2006-07-24,2.79, 3.11, 4.70, 2.23, 1.61, 7.24, repro,
2006-07-25,2.23, 3.78, 7.25, 2.21, 1.58, 7.13, repro,
2006-07-26,-0.28, 2.71, 17.33, 2.27, 1.65, 7.34, repro,
2006-07-27,2.02, 3.53, 7.49, 2.19, 1.59, 7.10, repro,
2006-07-28,-0.41, 4.66, 6.90, 2.22, 1.60, 7.18, repro,
2006-07-29,1.80, 7.02, 15.58, 2.39, 1.67, 7.58, repro,
2006-07-30,-3.72, 3.22, 17.30, 2.30, 1.65, 7.44, repro,
2006-07-31,-0.48, 5.19, 20.94, 2.26, 1.62, 7.30, repro,
2006-08-01,5.55, 1.86, 11.49, 2.83, 2.17, 9.25, repro,
2006-08-02,2.86, 3.03, -1.58, 2.30, 1.67, 7.44, repro,
2006-08-03,-0.38, 4.46, 1.26, 2.28, 1.64, 7.34, repro,
2006-08-04,-0.56, 3.74, 8.16, 2.33, 1.68, 7.50, repro,
2006-08-05,0.80, 3.92, 3.68, 2.32, 1.66, 7.46, repro,
2006-08-06,0.63, 4.75, 10.49, 2.28, 1.64, 7.35, repro,
2006-08-07,-0.29, 4.48, -0.57, 2.23, 1.62, 7.20, repro,
2006-08-08,0.75, 5.32, -0.67, 2.21, 1.60, 7.16, repro,
2006-08-09,-0.88, 5.05, 7.00, 2.21, 1.60, 7.16, repro,
2006-08-10,-0.10, 5.40, 8.65, 2.19, 1.58, 7.05, repro,
2006-08-11,0.97, 4.42, 5.17, 2.25, 1.64, 7.29, repro,
2006-08-12,-0.45, 4.00, 3.72, 2.20, 1.59, 7.10, repro,
2006-08-13,-1.04, 4.71, 7.72, 2.23, 1.60, 7.17, repro,
2006-08-14,1.25, 3.23, 1.81, 2.29, 1.62, 7.35, repro,
2006-08-15,1.77, 3.57, 3.76, 2.34, 1.66, 7.50, repro,
2006-08-16,1.01, 5.52, 8.45, 2.27, 1.60, 7.28, repro,
2006-08-17,2.03, 4.74, 2.08, 2.25, 1.63, 7.32, repro,
2006-08-18,-0.63, 4.05, 7.55, 2.37, 1.71, 7.64, repro,
2006-08-19,0.23, 4.45, 2.68, 2.24, 1.64, 7.40, repro,
2006-08-20,1.56, 4.11, -0.23, 2.27, 1.64, 7.37, repro,
2006-08-21,0.77, 3.92, 6.23, 2.25, 1.60, 7.25, repro,
2006-08-22,0.91, 3.91, 1.42, 2.23, 1.60, 7.22, repro,
2006-08-23,0.30, 3.16, 0.51, 2.37, 1.66, 7.62, repro,
2006-08-24,1.85, 4.49, 1.12, 2.26, 1.60, 7.25, repro,
2006-08-25,0.59, 3.90, 0.75, 2.30, 1.66, 7.43, repro,
2006-08-26,1.36, 5.62, -2.59, 2.34, 1.68, 7.45, repro,
2006-08-27,-0.51, 4.46, 6.70, 2.46, 1.76, 7.92, repro,
2006-08-28,0.28, 3.75, 5.84, 2.32, 1.68, 7.43, repro,
2006-08-29,0.46, 3.68, 4.19, 2.33, 1.69, 7.45, repro,
2006-08-30,0.84, 5.72, -1.64, 2.32, 1.68, 7.43, repro,
2006-08-31,1.06, 4.62, 0.15, 2.33, 1.67, 7.40, repro,
2006-09-01,1.04, 2.93, -0.54, 2.35, 1.67, 7.43, repro,
2006-09-02,-0.19, 4.71, -0.94, 2.33, 1.69, 7.49, repro,
2006-09-03,-0.43, 4.81, 1.18, 2.35, 1.70, 7.53, repro,
2006-09-04,0.76, 3.54, 3.85, 2.35, 1.72, 7.64, repro,
2006-09-05,0.75, 3.08, -7.90, 2.37, 1.71, 7.64, repro,
2006-09-06,0.61, 3.38, 1.76, 2.35, 1.67, 7.45, repro,
2006-09-07,-0.46, 3.49, 2.11, 2.35, 1.75, 7.68, repro,
2006-09-08,0.40, 4.27, 1.37, 2.36, 1.75, 7.68, repro,
2006-09-09,0.64, 4.77, 1.54, 2.27, 1.65, 7.32, repro,
2006-09-10,-0.70, 4.76, -2.65, 2.29, 1.64, 7.31, repro,
2006-09-11,-0.88, 4.32, 4.06, 2.28, 1.64, 7.31, repro,
2006-09-12,-1.96, 4.55, 3.71, 2.28, 1.62, 7.27, repro,
2006-09-13,-0.56, 3.43, 2.62, 2.32, 1.67, 7.43, repro,
2006-09-14,-0.68, 5.40, 5.67, 2.43, 1.72, 7.73, repro,
2006-09-15,-0.36, 4.55, 2.62, 2.30, 1.64, 7.40, repro,
2006-09-16,-0.99, 5.00, 5.15, 2.28, 1.61, 7.35, repro,
2006-09-17,1.28, 2.89, 14.86, 2.33, 1.66, 7.51, repro,
2006-09-18,-0.02, 3.11, 11.66, 2.28, 1.64, 7.34, repro,
2006-09-19,-1.09, 3.90, 5.67, 2.29, 1.63, 7.32, repro,
2006-09-20,-0.65, 3.55, 3.85, 2.23, 1.61, 7.26, repro,
2006-09-21,-0.93, 5.34, 6.79, 2.34, 1.68, 7.56, repro,
2006-09-22,-0.01, 4.04, 11.91, 2.34, 1.65, 7.43, repro,
2006-09-23,0.14, 3.41, 8.62, 2.29, 1.62, 7.35, repro,
2006-09-24,-0.24, 2.98, 1.54, 2.30, 1.62, 7.39, repro,
2006-09-25,-1.39, 2.95, 1.24, 2.24, 1.61, 7.25, repro,
2006-09-26,-0.69, 4.70, 1.69, 2.28, 1.65, 7.36, repro,
2006-09-29,-1.04, 4.50, 8.42, 2.35, 1.71, 7.45, repro,
2006-10-02,-0.31, 4.79, -2.09, 2.38, 1.70, 7.60, repro,
2006-10-03,0.09, 4.16, -0.47, 2.35, 1.66, 7.52, repro,
2006-10-04,0.75, 4.07, -7.05, 2.30, 1.65, 7.40, repro,
2006-10-05,-0.23, 3.75, -9.34, 2.36, 1.69, 7.53, repro,
2006-10-06,-0.55, 5.06, -4.46, 2.24, 1.60, 7.18, repro,
2006-10-07,-0.65, 4.49, -0.13, 2.36, 1.72, 7.53, repro,
2006-10-08,-0.42, 4.67, 4.70, 2.32, 1.65, 7.45, repro,
2006-10-09,0.62, 4.18, 0.92, 2.32, 1.65, 7.40, repro,
2006-10-10,-0.35, 4.67, 4.96, 2.35, 1.72, 7.54, repro,
2006-10-11,-0.55, 4.04, 1.22, 2.27, 1.64, 7.30, repro,
2006-10-12,-0.03, 3.23, 19.21, 2.25, 1.60, 7.25, repro,
2006-10-13,0.20, 2.49, 15.60, 2.26, 1.63, 7.30, repro,
2006-10-14,-0.37, 3.62, 9.64, 2.33, 1.69, 7.43, repro,
2006-10-15,-0.12, 4.12, 7.74, 2.27, 1.65, 7.38, repro,
2006-10-16,1.07, 5.04, 7.70, 2.23, 1.63, 7.24, repro,
2006-10-17,1.30, 3.96, 7.21, 2.21, 1.62, 7.16, repro,
2006-10-18,1.48, 2.90, 6.10, 2.21, 1.59, 7.15, repro,
2006-10-19,0.01, 3.87, 6.42, 2.29, 1.67, 7.36, repro,
2006-10-20,0.17, 4.45, 4.73, 2.59, 1.87, 8.05, repro,
2006-10-21,0.97, 4.19, 3.98, 2.28, 1.67, 7.35, repro,
2006-10-22,1.09, 2.72, 5.21, 2.25, 1.66, 7.26, repro,
2006-10-23,-0.56, 3.47, 6.48, 2.40, 1.74, 7.93, repro,
2006-10-24,0.02, 4.97, 7.06, 2.56, 1.91, 8.90, repro,
2006-10-25,0.43, 4.96, 0.65, 2.41, 1.72, 7.68, repro,
2006-10-26,0.99, 4.92, 1.83, 2.38, 1.68, 7.53, repro,
2006-10-27,0.43, 3.99, 6.17, 2.23, 1.63, 7.24, repro,
2006-10-28,1.56, 2.57, 8.20, 2.21, 1.62, 7.23, repro,
2006-10-29,0.67, 3.33, 8.37, 2.29, 1.67, 7.40, repro,
2006-10-30,0.39, 4.59, 4.30, 2.26, 1.61, 7.19, repro,
2006-10-31,0.52, 4.08, 4.54, 2.26, 1.65, 7.25, repro,
2006-11-01,0.34, 2.91, 4.96, 2.33, 1.72, 7.44, repro,
2006-11-02,-1.57, 3.23, -0.36, 2.26, 1.66, 7.30, repro,
2006-11-03,0.33, 3.26, -1.77, 2.34, 1.71, 7.51, repro,
2006-11-04,0.22, 4.37, -3.80, 2.38, 1.74, 7.67, repro,
2006-11-05,-0.94, 4.40, -2.36, 2.29, 1.66, 7.35, repro,
2006-11-06,0.37, 4.36, -1.55, 2.24, 1.61, 7.25, repro,
2006-11-07,0.74, 3.91, 8.13, 2.38, 1.74, 7.57, repro,
2006-11-08,0.76, 3.83, 10.71, 2.30, 1.68, 7.44, repro,
2006-11-09,0.22, 3.36, 14.75, 2.40, 1.75, 7.67, repro,
2006-11-10,0.88, 2.85, -1.77, 2.28, 1.63, 7.35, repro,
2006-11-11,0.61, 3.19, 1.94, 2.38, 1.70, 7.63, repro,
2006-11-12,1.10, 4.03, 3.26, 2.45, 1.75, 7.85, repro,
2006-11-13,-2.45, 4.06, 0.71, 2.29, 1.65, 7.47, repro,
2006-11-14,0.67, 4.24, 2.97, 2.60, 1.89, 8.57, repro,
2006-11-15,0.49, 3.92, 4.79, 2.19, 1.57, 7.11, repro,
2006-11-16,0.17, 3.24, 9.52, 2.19, 1.56, 7.07, repro,
2006-11-17,0.52, 3.05, 5.69, 2.37, 1.69, 7.75, repro,
2006-11-18,0.84, 3.28, -1.01, 2.25, 1.62, 7.28, repro,
2006-11-19,-0.33, 3.41, -4.26, 2.23, 1.61, 7.27, repro,
2006-11-20,-0.66, 3.32, -4.32, 2.23, 1.61, 7.25, repro,
2006-11-21,-0.88, 3.95, 2.19, 2.18, 1.57, 7.09, repro,
2006-11-22,0.65, 4.50, 0.27, 2.22, 1.61, 7.27, repro,
2006-11-23,1.17, 3.13, -3.05, 2.30, 1.66, 7.53, repro,
2006-11-24,-0.06, 3.85, 5.13, 2.24, 1.63, 7.31, repro,
2006-11-25,0.90, 3.38, 1.33, 2.23, 1.61, 7.24, repro,
2006-11-26,-0.83, 3.85, 2.24, 2.22, 1.60, 7.24, repro,
2006-11-27,0.08, 4.18, -3.08, 2.21, 1.59, 7.19, repro,
2006-11-28,1.68, 4.69, -3.30, 2.26, 1.62, 7.38, repro,
2006-11-29,1.43, 2.95, 2.25, 2.23, 1.62, 7.28, repro,
2006-11-30,0.53, 2.15, -3.33, 2.29, 1.66, 7.36, repro,
2006-12-01,0.68, 2.74, -3.03, 2.24, 1.61, 7.24, repro,
2006-12-02,0.52, 2.94, -6.22, 2.23, 1.61, 7.24, repro,
2006-12-03,-0.56, 2.39, -7.94, 2.31, 1.67, 7.57, repro,
2006-12-04,0.30, 2.80, -4.00, 2.26, 1.60, 7.30, repro,
2006-12-05,0.16, 2.77, -1.39, 2.26, 1.63, 7.40, repro,
2006-12-06,-0.33, 2.35, 2.72, 2.40, 1.76, 7.81, repro,
2006-12-07,-0.07, 2.47, -12.83, 2.19, 1.60, 7.18, repro,
2006-12-08,-0.80, 3.21, -4.32, 2.29, 1.62, 7.45, repro,
2006-12-09,-0.71, 4.51, 7.18, 2.32, 1.67, 7.58, repro,
2006-12-10,-0.32, 4.31, 3.70, 2.30, 1.65, 7.48, repro,
2006-12-11,0.72, 4.31, 2.67, 2.24, 1.61, 7.28, repro,
2006-12-12,-0.71, 3.65, 3.76, 2.21, 1.61, 7.24, repro,
2006-12-13,-0.34, 3.46, 6.85, 2.21, 1.60, 7.27, repro,
2006-12-14,-1.84, 3.95, 17.66, 2.29, 1.67, 7.65, repro,
2006-12-15,1.00, 3.76, 9.07, 2.56, 1.84, 8.19, repro,
2006-12-16,-0.92, 3.37, 8.80, 2.36, 1.68, 7.67, repro,
2006-12-17,-0.82, 3.32, -1.94, 2.30, 1.67, 7.48, repro,
2006-12-18,-0.92, 3.26, 1.55, 2.44, 1.78, 8.05, repro,
2006-12-19,-2.05, 3.75, 3.18, 2.36, 1.65, 7.66, repro,
2006-12-20,-0.20, 3.62, 7.81, 2.31, 1.63, 7.44, repro,
2006-12-21,0.41, 3.15, 2.26, 2.19, 1.57, 7.11, repro,
2006-12-22,-0.35, 4.29, 1.88, 2.33, 1.65, 7.51, repro,
2006-12-23,-1.44, 2.23, 4.81, 2.26, 1.61, 7.24, repro,
2006-12-24,-0.64, 2.87, 0.64, 2.23, 1.59, 7.21, repro,
2006-12-25,-0.49, 3.19, 4.36, 2.36, 1.67, 7.56, repro,
2006-12-26,0.60, 3.05, 5.78, 2.28, 1.61, 7.31, repro,
2006-12-27,0.59, 4.30, 4.98, 2.40, 1.69, 7.55, repro,
2006-12-28,-0.74, 4.25, 1.24, 2.32, 1.65, 7.39, repro,
2006-12-29,-0.97, 4.20, -10.00, 2.43, 1.75, 7.90, repro,
2006-12-30,-1.49, 1.76, -12.52, 2.42, 1.67, 7.59, repro,
2006-12-31,-0.49, 2.62, -5.88, 2.46, 1.76, 8.00, repro,
2007-05-17,-0.23, -0.10, -12.07, 2.18, 1.61, 7.18, repro,
2007-05-18,-0.42, 0.43, -9.27, 2.24, 1.66, 7.49, repro,
2007-05-19,1.25, -0.36, -9.59, 2.19, 1.58, 7.17, repro,
2007-05-20,0.85, 0.51, -4.84, 2.24, 1.61, 7.37, repro,
2007-05-21,0.35, -0.04, -3.54, 2.36, 1.71, 7.68, repro,
2007-05-22,0.93, -0.13, 0.15, 2.24, 1.58, 7.19, repro,
2007-05-23,1.15, -0.81, -9.51, 2.18, 1.57, 7.04, repro,
2007-05-24,1.30, -0.66, -16.59, 2.28, 1.66, 7.48, repro,
2007-05-25,1.60, 0.14, -16.42, 2.22, 1.58, 7.14, repro,
2007-05-26,3.54, 0.69, -6.54, 2.33, 1.67, 7.60, repro,
2007-05-27,1.25, -0.17, -11.57, 2.16, 1.56, 6.94, repro,
2007-05-28,2.32, -0.82, -12.75, 2.17, 1.56, 6.99, repro,
2007-05-29,1.38, -0.87, -13.84, 2.16, 1.57, 7.01, repro,
2007-05-30,1.91, 0.49, -10.81, 2.22, 1.61, 7.18, repro,
2007-05-31,1.55, -0.01, -13.82, 2.24, 1.62, 7.35, repro,
2007-06-01,1.73, -0.97, -13.59, 2.17, 1.57, 7.05, repro,
2007-06-02,1.67, -1.19, -8.11, 2.17, 1.58, 7.08, repro,
2007-06-03,3.45, -1.49, -11.83, 2.22, 1.61, 7.19, repro,
2007-06-04,1.55, -1.74, -1.27, 2.23, 1.62, 7.22, repro,
2007-06-05,1.36, -1.20, -5.47, 2.21, 1.61, 7.23, repro,
2007-06-06,1.23, 0.23, -4.95, 2.14, 1.58, 7.03, repro,
2007-06-07,3.56, -1.66, 2.12, 2.47, 1.78, 8.08, repro,
2007-06-08,-0.22, -1.97, -4.26, 2.23, 1.61, 7.18, repro,
2007-06-09,-0.20, -0.66, -8.95, 2.33, 1.66, 7.41, repro,
2007-06-10,-0.82, -1.44, -10.73, 2.35, 1.69, 7.53, repro,
2007-06-11,2.21, -1.51, -11.87, 2.43, 1.73, 7.78, repro,
2007-06-12,1.16, -0.87, -16.52, 2.44, 1.75, 7.86, repro,
2007-06-13,-0.94, -2.93, -11.03, 2.52, 1.88, 8.31, repro,
2007-06-14,0.00, -1.07, -10.64, 2.32, 1.66, 7.39, repro,
2007-06-15,0.32, -2.32, -6.89, 2.35, 1.68, 7.51, repro,
2007-06-16,-0.64, -2.41, -6.23, 2.49, 1.74, 7.93, repro,
2007-06-17,0.30, -0.25, -11.94, 2.34, 1.69, 7.55, repro,
2007-06-18,1.70, -2.14, -5.55, 2.41, 1.76, 7.90, repro,
2007-06-19,1.50, -2.38, -9.38, 3.29, 2.23, 10.15, repro,
2007-06-20,1.99, -1.93, -12.32, 2.35, 1.68, 7.52, repro,
2007-06-21,0.34, -1.43, -11.04, 2.32, 1.68, 7.46, repro,
2007-06-22,0.82, -1.14, -12.00, 2.31, 1.67, 7.44, repro,
2007-06-23,0.62, -0.44, -10.72, 2.33, 1.68, 7.50, repro,
2007-06-24,1.13, -1.71, -13.78, 2.39, 1.73, 7.67, repro,
2007-06-26,4.62, 0.23, -30.08, 5.27, 3.57, 15.47, repro,
2007-06-27,0.50, -1.64, -17.42, 2.33, 1.68, 7.51, repro,
2007-06-28,1.18, -2.13, -17.01, 2.33, 1.69, 7.52, repro,
2007-06-29,0.79, -0.61, -12.54, 2.32, 1.67, 7.43, repro,
2007-06-30,1.30, -1.18, -11.54, 2.31, 1.67, 7.41, repro,
2007-07-01,-0.11, -0.68, -3.75, 2.34, 1.67, 7.49, repro,
2007-07-02,-0.96, -0.51, -10.27, 2.55, 1.85, 8.14, repro,
2007-07-03,2.47, -1.48, -11.16, 2.56, 1.89, 8.08, repro,
2007-07-04,0.83, -1.20, -8.50, 2.33, 1.68, 7.51, repro,
2007-07-05,2.86, -2.15, -14.54, 2.32, 1.67, 7.42, repro,
2007-07-06,-0.17, -3.11, -13.19, 2.31, 1.66, 7.39, repro,
2007-07-07,1.74, -2.06, -7.03, 2.35, 1.68, 7.48, repro,
2007-07-08,2.14, -0.41, -3.18, 2.37, 1.69, 7.58, repro,
2007-07-09,1.34, -3.03, -1.46, 2.34, 1.69, 7.53, repro,
2007-07-10,3.96, -2.70, -1.76, 2.45, 1.73, 7.75, repro,
2007-07-11,1.12, -2.48, -5.24, 2.32, 1.67, 7.41, repro,
2007-07-12,2.29, -1.99, -8.42, 2.37, 1.68, 7.50, repro,
2007-07-13,1.27, -0.71, -10.49, 2.40, 1.73, 7.74, repro,
2007-07-14,-0.49, -1.37, -2.08, 2.43, 1.70, 7.74, repro,
2007-07-15,1.64, -0.30, -2.18, 2.39, 1.73, 7.60, repro,